Stations météo

Publicité
Chambery/Aix-Les-Bains, France (7491): Température de l'air & dewpoint: 10.08.2017 17:00:00 - 16.08.2017 17:00:00 (CEST)Chambery/Aix-Les-Bains, France (7491): Température de l'air 5cm: 10.08.2017 17:00:00 - 16.08.2017 17:00:00 (CEST)Chambery/Aix-Les-Bains, France (7491): Température de l'air -20cm & Température de l'air -100cm: 10.08.2017 17:00:00 - 16.08.2017 17:00:00 (CEST)Chambery/Aix-Les-Bains, France (7491): Vitesse du vent & gusts: 10.08.2017 17:00:00 - 16.08.2017 17:00:00 (CEST)Chambery/Aix-Les-Bains, France (7491): Direction du vent: 10.08.2017 17:00:00 - 16.08.2017 17:00:00 (CEST)Chambery/Aix-Les-Bains, France (7491): reduced air pressure: 10.08.2017 17:00:00 - 16.08.2017 17:00:00 (CEST)Chambery/Aix-Les-Bains, France (7491): visibility: 10.08.2017 17:00:00 - 16.08.2017 17:00:00 (CEST)Chambery/Aix-Les-Bains, France (7491): Ensoleillement: 10.08.2017 17:00:00 - 16.08.2017 17:00:00 (CEST)Chambery/Aix-Les-Bains, France (7491): Quantités de précipitations: 10.08.2017 17:00:00 - 16.08.2017 17:00:00 (CEST)
Date & Time tt [°C] td [°C] tt 5cm [°C] tt -20cm [°C] tt -100cm [°C] ff [km/h] ff [knt] fx [km/h] fx [knt] dd ppp [hPa] vv [km] sd [min] rr [mm]
16.08.2017 17:00:00 27,4 18,9 31,2 21,6 19,8 6 3 9 5 N 1018,4 18 33 0,0
16.08.2017 16:00:00 27,9 17,1 31,8 21,4 19,8 0 0 9 5 N 1018,3 18 32 0,0
16.08.2017 15:00:00 27,4 17,3 31,8 21,3 19,8 2 1 10 5 WNW 1018,6 18 29 0,0
16.08.2017 14:00:00 25,9 16,7 33,7 21,2 19,8 4 2 11 6 N 1019,1 16 54 0,0
16.08.2017 13:00:00 25,6 16,2 31,6 21,1 19,7 4 2 10 6 N 1019,7 20 58 0,0
16.08.2017 12:00:00 24,6 16,3 26,1 21,1 19,8 3 1 10 5 N 1020,4 17 60 0,2
16.08.2017 11:00:00 22,6 17,1 22,1 21,1 19,8 6 3 10 5 N 1021,2 11 47 0,0
16.08.2017 10:00:00 22,0 16,3 20,1 21,1 19,7 4 2 6 4 SE 1021,1 18 60 0,0
16.08.2017 09:00:00 19,5 16,7 16,8 21,2 19,8 4 2 8 4 SSE 1021,6 15 60 0,0
16.08.2017 08:00:00 16,6 15,8 12,5 21,3 19,8 4 2 5 3 S 1021,9 10 8 0,2
16.08.2017 07:00:00 15,8 14,8 12,6 21,3 19,7 2 1 7 4 S 1021,7 11 0 0,0
16.08.2017 06:00:00 16,5 15,4 13,0 21,4 19,8 8 4 11 6 S 1021,7 14 0 0,0
16.08.2017 05:00:00 17,0 15,2 13,2 21,5 19,8 4 2 9 5 SW 1021,6 17 0 0,2
16.08.2017 04:00:00 17,9 15,3 15,6 21,5 19,8 8 5 22 12 S 1021,3 20 0 0,0
16.08.2017 03:00:00 20,7 15,5 17,2 21,5 19,7 16 8 36 19 SW 1021,0 51 0 0,0
16.08.2017 02:00:00 19,7 16,7 17,7 21,5 19,7 16 8 33 18 SSW 1021,4 20 0 0,2
16.08.2017 01:00:00 19,7 18,2 18,7 21,6 19,8 16 9 21 11 SSE 1022,4 3,6 0 0,0
16.08.2017 00:00:00 19,8 17,9 18,4 21,6 19,7 6 4 16 8 SSW 1022,0 16 0 0,2
15.08.2017 23:00:00 20,0 17,4 17,5 21,6 19,8 4 2 9 5 W 1021,1 20 0 0,0
15.08.2017 22:00:00 20,0 17,2 17,2 21,6 19,8 3 1 7 4 NW 1020,5 20 0 0,2
15.08.2017 21:00:00 21,7 16,6 18,3 21,6 19,8 8 4 43 23 NNW 1019,7 43 0 0,4
15.08.2017 20:00:00 24,0 18,6 21,6 21,5 19,8 11 6 16 8 SSE 1019,2 20 0 0,0
15.08.2017 19:00:00 25,2 20,2 24,3 21,5 19,8 4 2 8 4 S 1018,2 20 0 0,0
15.08.2017 18:00:00 28,2 16,8 28,1 21,4 19,8 2 1 7 4 NNE 1017,9 19 8 0,0
15.08.2017 17:00:00 26,8 17,6 29,2 21,3 19,8 6 3 14 8 N 1017,9 16 34 0,0
15.08.2017 16:00:00 27,3 17,2 29,2 21,1 19,8 9 5 18 10 NNW 1017,5 13 28 0,0
15.08.2017 15:00:00 26,8 18,4 28,1 21,0 19,8 11 6 18 10 N 1017,9 14 25 0,0
15.08.2017 14:00:00 25,4 17,1 28,9 20,9 19,8 8 4 15 8 NNW 1018,4 12 4 0,0
15.08.2017 13:00:00 25,3 16,7 29,5 20,8 19,8 10 5 16 9 N 1018,9 13 45 0,0
15.08.2017 12:00:00 24,3 16,6 29,8 20,8 19,8 10 5 14 7 N 1019,4 15 60 0,0
15.08.2017 11:00:00 24,1 16,9 25,8 20,8 19,8 4 2 10 6 N 1019,7 14 60 0,0
15.08.2017 10:00:00 22,8 16,1 22,1 20,8 19,8 3 2 9 5 NE 1020,1 19 60 0,0
15.08.2017 09:00:00 21,8 15,6 18,3 20,9 19,8 3 1 6 4 SE 1020,3 18 60 0,0
15.08.2017 08:00:00 18,8 16,2 12,9 20,9 19,8 5 3 13 7 N 1020,5 19 16 0,0
15.08.2017 07:00:00 15,7 14,2 11,0 21,0 19,8 6 3 12 6 S 1019,7 20 0 0,0
15.08.2017 06:00:00 15,6 14,6 11,3 21,1 19,8 2 1 5 3 N 1019,7 14 0 0,0
15.08.2017 05:00:00 15,2 13,6 12,1 21,2 19,8 4 2 8 4 S 1019,8 15 0 0,0
15.08.2017 04:00:00 16,4 14,8 12,5 21,3 19,8 3 1 5 3 E 1019,8 20 0 0,0
15.08.2017 03:00:00 15,9 14,1 12,8 21,3 19,8 4 2 7 4 S 1019,7 17 0 0,0
15.08.2017 02:00:00 17,5 14,9 13,0 21,4 19,8 2 1 4 2 SE 1019,1 20 0 0,0
15.08.2017 01:00:00 18,5 15,2 13,8 21,5 19,8 3 1 5 3 SSE 1018,9 20 0 0,0
15.08.2017 00:00:00 19,0 15,5 14,5 21,5 19,8 4 2 13 7 WNW 1018,8 20 0 0,0
14.08.2017 23:00:00 20,0 16,2 15,7 21,5 19,8 3 2 9 5 WNW 1018,4 20 0 0,0
14.08.2017 22:00:00 20,9 17,3 17,0 21,5 19,8 5 3 8 5 SSW 1017,8 20 0 0,0
14.08.2017 21:00:00 21,7 17,9 17,8 21,5 19,8 0 0 9 5 N 1017,1 13 0 0,0
14.08.2017 20:00:00 23,6 18,3 20,8 21,4 19,8 2 1 10 5 W 1016,2 20 13 0,0
14.08.2017 19:00:00 29,1 17,6 30,2 21,3 19,8 5 3 12 6 NW 1015,6 19 60 0,0
14.08.2017 18:00:00 28,3 18,4 32,6 21,1 19,9 7 4 14 7 N 1015,9 20 60 0,0
14.08.2017 17:00:00 28,1 17,6 33,0 20,9 19,8 9 5 12 6 N 1016,1 20 60 0,0
14.08.2017 16:00:00 27,8 17,3 37,6 20,7 19,8 8 4 12 7 N 1016,6 19 60 0,0
14.08.2017 15:00:00 27,0 17,8 37,7 20,6 19,8 9 5 14 7 N 1017,2 25 60 0,0
14.08.2017 14:00:00 25,5 17,4 37,8 20,5 19,8 8 5 16 8 N 1017,9 5 60 0,0
14.08.2017 13:00:00 26,0 17,1 33,2 20,4 19,8 8 4 13 7 NNE 1018,3 12 60 0,0
14.08.2017 12:00:00 24,5 16,0 28,5 20,3 19,8 4 2 10 5 ESE 1019,0 58 60 0,0
14.08.2017 11:00:00 23,0 16,3 23,9 20,3 19,9 3 1 8 4 SE 1019,5 16 48 0,0
14.08.2017 10:00:00 21,1 16,1 20,0 20,4 19,8 0 0 6 3 N 1019,9 16 56 0,0
14.08.2017 09:00:00 18,1 16,3 16,2 20,4 19,8 0 0 6 3 N 1020,3 17 60 0,0
14.08.2017 08:00:00 15,4 14,8 11,3 20,5 19,9 0 0 4 2 N 1020,3 15 17 0,2
14.08.2017 07:00:00 13,5 12,7 10,2 20,6 19,9 3 1 5 3 SSE 1020,4 0,4 0 0,0
14.08.2017 06:00:00 13,7 12,9 10,3 20,6 19,9 3 1 5 3 SSE 1020,1 0,3 0 0,0
14.08.2017 05:00:00 14,1 13,3 10,3 20,7 19,9 0 0 6 4 N 1020,1 7 0 0,0
14.08.2017 04:00:00 14,1 13,3 11,3 20,8 19,9 6 3 7 4 S 1019,9 12 0 0,0
14.08.2017 03:00:00 15,2 14,2 11,4 20,9 19,9 0 0 5 3 N 1019,8 15 0 0,0
14.08.2017 02:00:00 15,3 14,3 11,9 20,9 19,9 3 2 5 3 SSE 1019,8 13 0 0,0
14.08.2017 01:00:00 15,7 14,4 12,3 21,0 19,9 0 0 5 3 N 1019,9 11 0 0,0
14.08.2017 00:00:00 16,7 15,2 13,3 21,0 19,9 2 1 3 2 S 1019,7 17 0 0,0
13.08.2017 23:00:00 17,7 15,5 14,5 21,0 19,9 2 1 4 2 SSW 1019,7 9 0 0,0
13.08.2017 22:00:00 18,3 15,9 14,8 21,1 19,9 0 0 6 3 N 1019,3 20 0 0,0
13.08.2017 21:00:00 19,8 16,6 16,7 21,0 19,9 0 0 4 2 N 1018,7 16 24 0,0
13.08.2017 20:00:00 21,8 17,8 21,0 21,0 19,9 0 0 5 3 N 1018,3 20 2 0,0
13.08.2017 19:00:00 24,1 17,1 23,4 20,8 19,9 0 0 10 5 N 1017,9 20 16 0,0
13.08.2017 18:00:00 26,2 15,3 30,1 20,7 19,9 7 4 11 6 N 1017,9 17 60 0,0
13.08.2017 17:00:00 26,0 14,5 32,0 20,5 19,9 7 4 13 7 N 1018,2 17 60 0,0
13.08.2017 16:00:00 25,8 14,0 35,5 20,4 20,0 6 4 12 7 N 1018,4 19 60 0,0
13.08.2017 15:00:00 24,6 14,7 35,1 20,2 20,0 8 4 14 7 N 1018,8 18 60 0,0
13.08.2017 14:00:00 23,7 13,8 28,6 20,1 20,0 4 2 10 5 NNW 1019,5 17 31 0,0
13.08.2017 13:00:00 22,7 13,2 28,0 20,1 20,0 7 4 12 7 NNE 1020,2 17 47 0,0
13.08.2017 12:00:00 21,8 13,9 26,5 20,0 20,0 5 3 11 6 SSW 1020,9 17 60 0,0
13.08.2017 11:00:00 20,0 13,5 21,3 20,0 20,0 3 1 7 4 E 1021,4 18 46 0,0
13.08.2017 10:00:00 18,8 13,0 18,7 20,0 20,0 2 1 8 4 SSE 1021,7 13 55 0,0
13.08.2017 09:00:00 16,4 13,5 15,1 20,1 20,0 4 2 7 4 NNW 1021,9 18 60 0,0
13.08.2017 08:00:00 13,4 12,8 9,4 20,2 20,0 4 2 7 4 SE 1022,0 2,5 18 0,0
13.08.2017 07:00:00 11,7 11,1 8,4 20,3 20,0 2 1 5 3 S 1022,2 8 0 0,0
13.08.2017 06:00:00 10,9 10,1 7,7 20,4 20,0 5 3 8 4 S 1021,9 9 0 0,2
13.08.2017 05:00:00 11,7 10,8 8,1 20,5 20,0 2 1 5 3 SSW 1021,9 11 0 0,0
13.08.2017 04:00:00 12,0 11,1 8,6 20,6 20,0 2 1 5 3 SW 1022,0 14 0 0,0
13.08.2017 03:00:00 12,4 11,3 8,8 20,6 20,0 2 1 6 3 SE 1022,0 18 0 0,0
13.08.2017 02:00:00 13,2 11,9 9,3 20,7 20,1 4 2 5 3 S 1022,1 9 0 0,0
13.08.2017 01:00:00 13,7 12,3 10,5 20,8 20,1 2 1 10 5 S 1022,1 19 0 0,0
13.08.2017 00:00:00 13,6 11,8 11,0 20,8 20,1 5 3 7 4 S 1022,1 19 0 0,0
12.08.2017 23:00:00 14,9 12,4 11,8 20,9 20,1 4 2 7 4 S 1021,6 19 0 0,0
12.08.2017 22:00:00 15,4 13,1 12,2 20,9 20,1 4 2 8 4 S 1021,4 20 0 0,0
12.08.2017 21:00:00 16,2 13,5 13,6 20,9 20,1 5 3 6 4 SSW 1020,7 35 0 0,0
12.08.2017 20:00:00 18,5 13,6 16,8 20,8 20,1 4 2 9 5 SW 1020,5 19 10 0,0
12.08.2017 19:00:00 22,9 12,2 21,9 20,7 20,1 6 3 16 9 NW 1020,1 20 43 0,0
12.08.2017 18:00:00 23,8 11,5 27,6 20,6 20,1 11 6 18 10 N 1020,1 9 60 0,0
12.08.2017 17:00:00 23,6 11,3 29,2 20,4 20,1 13 7 21 11 N 1020,3 8 60 0,0
12.08.2017 16:00:00 23,4 13,3 30,6 20,3 20,1 14 8 20 11 N 1020,6 11 60 0,0
12.08.2017 15:00:00 22,5 13,0 31,9 20,1 20,1 13 7 21 12 N 1021,3 16 60 0,0
12.08.2017 14:00:00 21,5 13,1 33,0 20,0 20,1 12 7 18 10 N 1021,6 18 60 0,0
12.08.2017 13:00:00 19,8 13,5 29,2 19,9 20,1 10 5 16 8 N 1022,2 60 60 0,0
12.08.2017 12:00:00 18,4 12,2 23,9 19,9 20,1 3 2 11 6 N 1022,6 18 60 0,0
12.08.2017 11:00:00 16,8 11,7 18,8 19,9 20,1 6 3 13 7 NNW 1023,2 20 48 0,0
12.08.2017 10:00:00 16,2 11,4 16,2 19,9 20,1 3 2 9 5 ESE 1023,3 18 45 0,0
12.08.2017 09:00:00 13,7 11,7 12,9 20,0 20,2 3 2 8 5 SSW 1023,4 18 17 0,0
12.08.2017 08:00:00 12,3 11,0 11,1 20,0 20,1 2 1 8 4 SSE 1023,2 4,4 0 0,0
12.08.2017 07:00:00 11,4 10,3 11,0 20,0 20,2 5 3 8 4 SSE 1023,0 18 0 0,0
12.08.2017 06:00:00 11,7 10,8 11,4 20,1 20,2 2 1 5 3 S 1022,8 20 0 0,0
12.08.2017 05:00:00 11,5 10,6 11,1 20,1 20,2 4 2 8 5 SE 1022,9 20 0 0,0
12.08.2017 04:00:00 12,1 11,2 10,0 20,2 20,2 3 2 7 4 ESE 1023,0 17 0 0,0
12.08.2017 03:00:00 11,7 10,8 7,8 20,2 20,2 0 0 7 4 N 1022,9 16 0 0,0
12.08.2017 02:00:00 11,5 10,6 8,4 20,3 20,2 0 0 7 4 N 1022,7 18 0 0,0
12.08.2017 01:00:00 12,5 11,2 9,5 20,4 20,2 2 1 9 5 SW 1022,8 60 0 0,0
12.08.2017 00:00:00 13,1 11,8 12,1 20,4 20,2 4 2 6 4 SSW 1022,7 20 0 0,0
11.08.2017 23:00:00 13,1 11,8 11,9 20,4 20,2 5 3 7 4 S 1022,4 20 0 0,2
11.08.2017 22:00:00 14,0 12,4 13,2 20,4 20,2 3 2 6 3 SSE 1022,4 52 0 0,0
11.08.2017 21:00:00 14,6 12,3 13,3 20,4 20,2 0 0 20 11 N 1021,9 12 0 0,0
11.08.2017 20:00:00 15,5 11,5 14,0 20,4 20,2 13 7 23 13 N 1021,2 20 0 0,0
11.08.2017 19:00:00 16,4 12,0 - - - 4 2 11 6 SSW 1020,8 60 - 0,0
11.08.2017 18:00:00 16,7 11,4 15,9 20,3 20,2 3 2 11 6 WNW 1020,5 53 0 0,0
11.08.2017 17:00:00 17,3 11,3 16,9 20,3 20,2 6 4 13 7 NNW 1020,3 20 18 0,2
11.08.2017 16:00:00 15,4 12,9 15,7 20,2 20,2 5 3 8 4 W 1020,7 14 0 0,6
11.08.2017 15:00:00 15,5 11,9 16,7 20,2 20,2 5 3 9 5 NNW 1020,7 20 0 0,2
11.08.2017 14:00:00 16,0 11,2 16,8 20,2 20,2 0 0 7 4 N 1020,2 20 5 0,0
11.08.2017 13:00:00 14,2 11,5 14,1 20,3 20,2 3 1 5 3 SSW 1020,5 2,7 0 0,2
11.08.2017 12:00:00 13,3 11,5 13,6 20,4 20,2 3 1 6 3 SSW 1020,3 16 0 2,2
11.08.2017 11:00:00 12,9 11,6 12,5 20,5 20,2 3 2 11 6 SSW 1020,0 6 0 2,3
11.08.2017 10:00:00 12,7 11,3 12,3 20,6 20,2 6 3 18 10 ESE 1019,5 7 0 3,2
11.08.2017 09:00:00 12,5 11,4 11,9 20,8 20,2 6 3 11 6 SSE 1019,0 9 0 6,0
11.08.2017 08:00:00 12,5 11,1 11,9 20,9 20,2 8 4 13 7 SE 1018,6 2,7 0 3,5
11.08.2017 07:00:00 13,0 11,2 12,3 21,0 20,2 5 3 15 8 SE 1017,7 52 0 1,8
11.08.2017 06:00:00 13,6 12,0 12,9 21,0 20,2 3 2 11 6 SSE 1017,2 14 0 1,8
11.08.2017 05:00:00 13,9 12,1 13,0 21,1 20,2 4 2 12 7 S 1017,3 6 0 0,2
11.08.2017 04:00:00 14,1 12,7 12,9 21,2 20,2 6 4 10 5 SSW 1017,6 20 0 0,0
11.08.2017 03:00:00 13,9 11,9 12,6 21,3 20,2 5 3 10 5 SSE 1018,0 49 0 1,0
11.08.2017 02:00:00 14,4 11,2 13,3 21,3 20,2 5 3 11 6 SSW 1018,4 19 0 0,0
11.08.2017 01:00:00 15,3 10,5 12,0 21,4 20,3 3 2 16 8 SSE 1018,7 60 0 0,0
11.08.2017 00:00:00 15,0 9,6 11,9 21,5 20,2 2 1 23 12 NW 1018,9 60 0 0,0
10.08.2017 23:00:00 16,3 9,5 13,1 21,5 20,2 15 8 25 13 N 1018,2 60 0 0,0
10.08.2017 22:00:00 15,9 10,9 10,6 21,6 20,3 12 6 19 10 NNE 1018,2 60 0 0,0
10.08.2017 21:00:00 15,4 10,2 11,2 21,6 20,2 0 0 13 7 N 1018,0 19 0 0,0
10.08.2017 20:00:00 17,8 10,4 15,7 21,6 20,3 3 2 10 5 NNW 1017,8 59 17 0,0
10.08.2017 19:00:00 19,8 9,9 20,0 21,5 20,3 8 4 15 8 N 1017,6 60 32 0,0
10.08.2017 18:00:00 20,1 9,9 21,4 21,5 20,3 8 4 13 7 N 1017,8 20 6 0,0
10.08.2017 17:00:00 19,9 8,6 20,5 21,4 20,3 4 2 12 6 WNW 1017,8 20 8 0,0

tt = Température de l'air
td = dewpoint
tt 5cm = Température de l'air 5cm
tt -20cm = Température de l'air -20cm
tt -100cm = Température de l'air -100cm
ff = Vitesse du vent
fx = gusts
dd = Direction du vent
ppp = reduced air pressure
vv = visibility
sd = Ensoleillement
rr = Quantités de précipitations

stations d'obs. à proximité